This is the latest recevied weather packets stored in our database for station/object SQ8SW-4. If no packets are shown the sender has not sent any weather packets the latest 10 day(s).
| Time | Temp. | Humidity | Pressure | Rain* | Wind** | Luminosity | Snow |
|---|---|---|---|---|---|---|---|
| 1777803360 | 21.67° C | 36% | 992 hPa | - | - | - | - |
| 1777802457 | 21.11° C | 35% | 992 hPa | - | - | - | - |
| 1777801555 | 21.11° C | 36% | 992 hPa | - | - | - | - |
| 1777800653 | 20.56° C | 37% | 992 hPa | - | - | - | - |
| 1777799751 | 20.56° C | 38% | 992 hPa | - | - | - | - |
| 1777798848 | 20° C | 38% | 992 hPa | - | - | - | - |
| 1777797946 | 20° C | 39% | 992 hPa | - | - | - | - |
| 1777797044 | 19.44° C | 39% | 992 hPa | - | - | - | - |
| 1777796142 | 18.89° C | 40% | 992 hPa | - | - | - | - |
| 1777795240 | 18.89° C | 41% | 992 hPa | - | - | - | - |
| 1777794337 | 18.33° C | 42% | 993 hPa | - | - | - | - |
| 1777793435 | 17.22° C | 44% | 993 hPa | - | - | - | - |
| 1777792533 | 16.67° C | 44% | 993 hPa | - | - | - | - |
| 1777791630 | 15.56° C | 47% | 993 hPa | - | - | - | - |
| 1777790728 | 14.44° C | 51% | 993 hPa | - | - | - | - |
| 1777789826 | 13.33° C | 59% | 993 hPa | - | - | - | - |
| 1777788924 | 12.22° C | 62% | 993 hPa | - | - | - | - |
| 1777788021 | 11.11° C | 63% | 993 hPa | - | - | - | - |
| 1777787119 | 10.56° C | 66% | 993 hPa | - | - | - | - |
| 1777786217 | 9.44° C | 68% | 993 hPa | - | - | - | - |
| 1777785314 | 8.89° C | 68% | 993 hPa | - | - | - | - |
| 1777784412 | 8.33° C | 69% | 993 hPa | - | - | - | - |
| 1777783510 | 7.78° C | 71% | 993 hPa | - | - | - | - |
| 1777782607 | 7.22° C | 75% | 993 hPa | - | - | - | - |
| 1777781705 | 6.67° C | 77% | 993 hPa | - | - | - | - |
* Rain since midnight (hover to see other rain measurements)
** Current wind speed in m/s (hover to see current wind gust speed)